Temp
10 10 10 10 10 10 10 9 9 9 9 9 9 9 9 9 9 8 8 9 9 9 9 9 10 11 12 12 13 13 14 15 15 15 15 15 15 15 15 15 15 15
10 9 9 9 10 9 9 9 8 8 9 9 9 9 9 8 8 8 8 8 8 8 9 9 9 10 11 12 12 13 14 14 15 15 15 15 15 15 15 15 15 15
9 9 9 9 9 9 8 8 8 8 8 9 9 9 9 8 8 8 8 8 8 8 8 8 9 9 10 11 12 13 13 14 15 15 15 15 15 15 15 15 15 15
9 9 9 9 9 8 8 8 8 8 8 8 8 8 8 8 8 8 8 8 8 8 8 7 8 8 9 10 11 12 13 13 14 15 15 16 15 15 15 15 15 15
9 9 9 9 8 8 8 8 8 8 8 8 8 8 8 8 8 8 8 8 8 7 7 7 7 8 8 9 10 11 12 13 14 15 15 16 16 16 16 15 15 15
9 9 9 9 8 8 8 8 8 8 8 8 8 8 8 8 8 7 7 7 7 7 7 7 7 7 8 9 9 10 11 12 13 14 15 16 16 16 16 16 16 16
9 9 9 9 9 8 8 8 8 8 8 8 8 8 8 7 7 7 7 7 7 7 7 7 7 7 7 8 9 10 11 12 13 13 14 15 16 16 16 16 16 16
9 9 9 9 9 8 8 8 9 8 8 8 7 7 7 7 7 7 7 6 6 6 6 6 7 7 7 7 8 8 9 10 12 13 13 14 15 16 17 17 17 16
9 9 9 9 9 8 9 9 9 8 8 8 7 7 7 7 7 6 6 6 6 6 6 6 6 6 6 6 7 7 8 9 10 11 12 13 14 15 16 16 17 17
9 9 9 9 9 9 9 9 8 8 8 8 7 7 7 7 7 6 6 6 6 6 6 6 6 6 6 6 6 7 7 8 8 10 11 12 13 14 15 16 17 17
9 9 9 9 9 9 9 9 8 8 8 8 7 7 6 6 6 6 6 6 6 5 5 5 5 5 6 6 6 6 7 7 8 9 10 11 12 13 14 15 16 16
9 9 9 9 9 9 8 8 8 8 8 7 7 6 6 6 6 6 6 6 5 5 5 5 5 5 5 5 5 5 6 6 7 8 9 10 11 12 13 14 15 16
9 9 9 9 8 8 8 8 8 7 7 7 7 7 7 7 6 6 6 5 5 5 5 5 5 5 5 5 5 5 5 6 7 8 9 10 11 11 12 13 14 15
9 9 9 8 8 8 8 7 7 7 7 7 7 7 6 6 6 6 5 5 5 5 5 5 5 5 5 5 5 5 5 6 6 7 8 9 10 11 12 13 14 14
9 9 9 8 8 7 7 7 7 7 7 7 7 7 6 6 6 6 5 5 5 5 5 5 5 5 5 5 5 5 5 6 6 7 7 8 10 11 12 13 13 14
9 9 9 8 7 7 7 7 7 7 7 7 7 7 6 6 6 6 5 5 5 5 5 4 5 5 5 5 4 4 5 6 6 7 7 8 9 11 12 13 13 14
9 9 8 8 7 6 7 7 7 7 7 6 6 6 6 6 6 5 5 5 5 5 4 4 4 4 4 4 4 4 4 5 6 7 7 8 9 10 12 13 14 14
9 9 8 7 7 7 7 7 7 7 6 6 6 6 5 5 5 5 5 5 5 5 4 4 4 4 4 4 4 4 4 4 5 6 7 8 9 10 12 13 14 14
9 8 8 7 7 7 7 7 7 6 6 5 5 5 5 5 5 5 5 5 4 4 4 4 4 4 4 4 4 4 4 4 4 4 6 7 8 10 11 13 14 14
9 8 7 7 7 7 7 7 6 6 5 5 5 4 4 4 4 4 4 4 4 4 4 4 4 4 4 4 4 4 4 3 3 4 5 6 7 9 10 12 13 14
8 8 7 7 7 7 7 7 6 5 5 4 4 4 4 3 3 3 3 3 3 3 3 3 4 4 4 4 4 4 4 3 3 3 4 5 7 8 9 10 12 14
8 8 7 7 7 7 7 7 6 5 5 4 4 4 3 3 3 3 3 3 3 3 3 4 4 4 4 4 4 4 4 3 3 4 4 5 6 7 8 9 10 12
8 8 7 7 7 7 7 6 5 5 4 4 4 3 3 3 3 3 3 3 3 3 3 3 4 4 4 4 4 4 4 4 3 4 4 5 6 7 8 9 10 12
8 8 7 7 7 7 6 5 5 5 5 4 4 4 3 3 3 3 3 2 2 3 3 3 3 3 3 3 4 4 4 4 4 4 5 5 6 6 7 9 10 11
8 8 7 7 7 6 5 5 5 5 5 4 4 3 3 3 3 3 2 2 2 2 2 2 3 3 3 3 4 4 4 4 4 4 5 6 6 7 8 8 10 11
8 8 7 7 6 6 5 5 4 4 4 4 3 3 3 3 3 2 2 2 2 2 2 2 2 3 4 4 4 4 3 4 4 5 5 6 7 8 8 9 10 11
Height
809 810 812 812 812 812 812 813 812 812 812 811 811 810 809 809 809 808 808 807 806 806 805 805 804 803 802 800 799 798 798 797 797 797 797 797 798 799 800 802 803 804
808 809 810 810 810 810 810 810 810 810 809 809 809 808 807 807 806 806 806 805 804 803 803 803 802 801 800 799 798 796 795 794 794 794 794 794 794 794 795 797 798 800
806 807 807 808 808 808 808 808 807 807 807 807 806 806 805 805 804 804 804 803 802 801 800 800 799 799 798 797 796 794 793 792 791 791 791 790 791 790 791 793 795 796
804 805 805 806 806 806 806 806 805 805 805 804 804 804 803 803 802 802 802 801 800 799 798 798 797 796 795 794 793 792 790 789 788 788 788 787 787 787 788 789 790 792
803 803 803 804 803 804 804 803 803 803 803 802 802 802 801 801 800 800 799 799 798 797 796 795 794 793 792 791 790 789 788 786 785 784 784 783 783 783 784 785 785 787
801 801 801 802 801 801 801 801 801 801 801 800 800 800 799 799 798 797 797 796 795 794 793 792 792 791 790 789 788 786 785 783 782 781 780 779 780 780 780 780 780 781
799 799 800 800 799 799 799 799 799 799 799 798 797 797 797 796 795 795 794 793 792 791 790 790 789 788 787 786 785 783 782 780 779 778 777 776 776 776 776 776 776 777
797 797 798 798 797 797 797 797 797 796 796 795 795 794 794 793 792 792 791 790 789 788 787 786 785 785 784 783 782 780 779 778 776 775 774 773 772 771 771 772 772 772
795 795 796 796 795 795 795 794 794 793 793 792 792 791 790 790 789 788 788 787 786 785 784 783 782 781 780 779 778 777 775 774 773 772 771 770 769 768 767 768 767 767
793 793 794 793 793 793 792 792 791 790 790 789 788 788 787 786 785 785 784 784 783 781 780 779 778 777 776 775 774 773 772 771 770 769 768 767 766 765 764 763 763 762
791 791 791 791 791 790 789 789 788 787 787 786 785 784 783 782 782 781 780 779 778 777 776 775 773 772 771 770 770 769 768 767 766 765 764 763 762 761 760 759 759 758
789 789 789 788 788 788 787 786 785 784 783 782 781 780 779 778 777 777 776 774 773 772 771 770 769 768 766 765 765 764 764 763 762 761 760 759 758 757 756 755 754 754
786 786 786 786 785 785 784 783 782 781 780 779 777 776 774 773 772 772 771 770 768 767 766 765 763 762 761 760 760 759 759 758 757 757 756 755 754 752 751 751 750 749
784 784 783 783 783 782 782 781 780 778 777 775 774 772 770 769 768 767 766 765 763 761 760 759 758 756 755 754 754 754 753 753 753 752 751 750 749 747 747 746 745 745
781 781 781 781 781 780 779 778 777 775 773 771 770 768 766 765 763 762 761 759 758 756 755 754 752 750 749 749 748 748 748 748 748 747 747 746 744 742 741 740 740 740
778 778 778 778 778 778 777 775 773 772 769 767 766 764 762 761 759 757 756 754 752 751 750 748 746 744 742 742 743 743 744 744 743 742 742 741 740 738 736 735 734 734
775 775 775 776 776 775 774 772 770 768 766 764 762 760 758 756 754 753 751 749 747 745 744 742 740 737 737 737 737 738 739 740 739 738 737 736 735 733 731 729 729 729
773 773 773 774 773 772 771 769 767 765 762 760 758 756 754 752 750 748 746 744 742 740 738 736 734 732 732 732 732 733 734 735 735 734 733 731 730 728 726 725 724 724
770 771 771 771 770 769 768 766 764 762 760 757 755 752 750 748 745 743 740 739 736 734 732 730 727 726 726 726 726 727 729 730 730 729 728 726 725 723 721 720 719 719
768 769 769 768 768 767 765 763 761 759 757 754 751 749 746 743 740 738 735 733 731 728 726 724 721 720 720 720 720 721 723 724 724 724 723 721 720 718 717 715 714 713
766 766 767 766 765 764 762 760 758 756 753 751 748 745 742 738 735 732 729 727 725 723 720 717 715 714 714 714 714 715 716 717 717 717 717 715 714 713 712 710 709 709
764 764 764 764 763 761 759 757 755 753 750 747 744 741 738 734 731 727 724 721 719 717 714 710 708 707 707 707 707 708 709 710 710 710 710 708 708 707 706 706 705 704
762 762 762 761 760 758 756 754 752 750 747 744 740 737 733 729 726 722 719 716 713 711 708 704 701 700 700 699 699 701 702 702 702 703 702 702 701 701 701 700 699 699
760 760 759 758 757 755 753 751 749 746 743 740 736 732 728 725 721 717 714 711 708 705 702 699 695 693 693 692 691 692 693 694 695 696 695 695 694 695 695 694 693 693
757 757 756 755 754 752 751 749 746 743 739 736 732 728 724 720 717 713 709 706 703 699 696 693 688 685 684 683 683 684 686 687 689 689 688 688 688 688 689 689 688 688
755 754 754 753 752 750 748 746 744 740 736 732 728 724 721 717 713 710 705 700 696 693 690 686 683 679 676 675 675 677 679 680 682 682 681 681 682 682 682 683 683 683
Wind_Speed
3 3 3 4 4 4 4 5 5 6 7 8 9 9 9 10 11 12 12 13 14 15 15 15 16 16 17 17 19 20 20 21 21 22 24 27 30 34 35 38 42 42
3 4 4 4 5 5 5 6 7 7 8 9 9 10 10 10 11 12 13 13 14 15 16 16 16 16 17 17 18 19 21 22 22 21 21 24 28 31 32 34 39 43
4 5 5 6 6 6 7 7 8 8 9 9 10 10 11 11 12 13 14 14 15 16 16 17 17 17 17 18 19 20 21 23 24 23 22 22 24 27 30 31 33 37
5 6 6 6 7 7 7 8 8 9 9 10 10 11 11 12 13 14 15 16 16 17 17 17 18 19 19 19 19 20 21 23 24 24 24 23 22 25 30 30 31 34
6 6 6 7 7 7 8 9 9 10 10 11 12 12 13 14 15 16 16 17 17 17 17 17 18 19 19 20 20 20 20 21 23 25 26 26 23 23 27 29 32 35
5 6 6 7 7 8 9 9 10 11 12 13 14 15 15 16 17 17 18 18 18 19 19 18 19 19 19 20 21 21 21 21 22 24 26 28 27 26 26 27 30 32
5 6 7 8 8 9 10 11 12 14 15 16 16 17 17 18 18 19 19 19 19 20 21 20 20 20 20 20 21 22 22 23 23 24 26 28 29 30 28 27 28 30
5 6 7 8 9 10 11 12 14 16 17 18 19 20 19 20 20 21 21 21 21 21 21 21 21 22 22 22 22 23 23 23 24 25 26 27 29 32 32 29 28 29
6 7 8 9 10 11 13 14 16 18 19 20 21 22 22 23 23 22 22 23 23 23 22 23 23 23 23 23 24 24 24 25 25 25 26 26 28 30 32 33 31 30
6 7 8 10 11 12 15 17 18 19 20 21 21 22 23 25 25 25 25 25 25 24 24 24 25 24 25 25 25 26 26 26 26 27 27 27 28 29 31 34 34 32
7 8 9 10 12 14 17 19 19 20 21 22 22 23 24 25 26 26 27 26 26 26 26 26 26 26 27 27 27 26 26 27 28 28 29 28 29 30 30 32 35 34
7 8 9 11 14 16 18 19 20 21 22 22 23 24 25 27 28 28 27 26 26 27 27 27 27 28 28 28 28 27 27 27 28 29 30 30 30 31 31 32 33 34
7 8 10 12 14 16 18 19 20 21 22 23 24 25 27 30 31 30 29 28 28 28 28 29 29 29 30 29 29 28 28 28 28 29 30 31 32 32 32 32 33 34
7 8 10 13 14 16 17 19 20 22 23 24 25 26 28 30 30 29 28 29 29 29 29 29 30 30 30 30 29 28 29 29 29 29 30 31 32 33 33 33 33 34
7 9 11 13 15 16 17 19 21 22 23 24 25 26 28 29 29 29 29 29 30 30 31 30 31 32 31 30 29 28 27 28 29 29 30 30 31 33 34 34 33 33
8 9 12 13 13 15 18 20 22 23 24 25 26 26 27 27 29 30 30 30 31 31 31 31 32 32 32 32 32 30 28 27 27 28 29 30 31 32 33 34 35 34
8 10 12 12 13 16 18 20 22 23 24 25 26 26 26 28 29 30 30 30 31 31 31 32 33 33 33 34 35 35 33 30 28 28 28 30 31 32 33 33 34 34
8 10 11 13 14 16 18 20 22 23 24 25 25 26 27 29 30 29 29 29 30 31 32 33 34 34 34 35 36 36 36 35 32 31 30 30 31 32 33 32 32 33
8 10 12 13 14 16 18 20 22 23 24 24 25 26 27 28 29 29 30 30 30 31 33 34 34 35 36 36 37 37 38 38 36 34 33 33 32 31 31 32 32 32
9 11 13 13 14 16 19 21 22 23 24 24 25 26 26 28 29 29 29 29 30 31 33 33 34 34 35 37 38 38 39 40 39 36 36 36 35 34 32 32 33 32
10 11 12 13 15 17 20 21 23 25 25 26 27 27 27 27 28 28 28 29 30 31 33 34 33 33 34 36 38 38 38 40 40 38 38 38 37 36 35 33 32 33
11 12 13 14 17 19 21 22 25 26 28 29 29 28 27 26 27 27 28 30 30 31 33 35 35 34 35 36 37 37 38 40 40 38 38 39 38 37 36 35 34 34
11 12 14 16 18 20 22 23 25 27 29 30 29 28 27 27 28 29 29 30 31 32 34 35 36 35 36 37 38 38 39 39 37 36 36 38 38 37 35 35 36 36
11 13 15 16 18 20 22 23 26 28 30 29 28 29 29 29 30 30 30 31 31 33 33 35 36 35 36 38 39 39 40 39 35 33 35 35 36 37 35 35 36 38
12 13 14 16 19 21 22 23 26 30 30 29 28 29 29 29 29 30 31 31 31 32 33 33 35 35 37 39 41 41 41 40 35 32 33 34 34 34 34 33 34 37
11 13 14 16 19 21 22 23 26 29 30 29 28 29 29 29 29 30 31 30 30 30 31 31 32 33 35 38 41 41 41 40 36 32 32 33 32 31 31 31 33 34
Wind_Direction
171 189 213 231 244 253 259 266 269 272 274 274 273 273 274 276 276 276 274 272 273 272 272 273 271 267 263 261 259 257 254 253 253 249 242 236 230 225 221 220 221 221
183 196 217 228 237 244 252 262 267 269 271 270 271 271 271 272 273 272 271 271 271 270 270 270 268 266 264 262 259 255 253 251 250 250 246 240 235 229 222 220 221 221
188 203 220 230 235 242 251 262 264 266 270 270 270 271 271 272 273 270 269 269 269 269 268 267 266 265 264 263 260 255 252 249 247 246 247 245 240 234 229 224 221 220
197 211 223 232 238 244 251 258 262 266 270 272 272 273 273 275 276 274 270 269 269 268 267 266 264 263 263 264 261 257 254 251 247 244 244 245 243 239 233 227 223 222
202 215 225 234 237 242 250 257 263 268 272 275 278 279 278 277 276 275 273 271 269 268 267 265 263 261 261 263 262 258 256 253 248 244 242 242 242 242 237 230 226 225
207 221 229 237 241 245 252 258 265 272 276 279 281 280 279 278 276 273 272 272 270 269 267 264 263 261 258 258 259 257 254 253 250 247 243 241 239 241 242 236 231 228
217 233 239 244 249 251 256 263 272 277 277 278 278 277 277 277 276 274 272 271 269 269 267 265 262 260 258 256 256 256 254 252 252 249 247 245 240 239 241 241 237 234
231 246 249 251 254 257 262 270 276 277 277 277 276 276 277 276 276 275 273 270 269 268 266 265 262 259 258 256 254 256 256 253 250 248 248 248 245 241 239 240 240 238
244 253 257 259 260 263 269 276 279 278 278 278 276 277 277 276 275 275 273 271 269 267 265 263 262 259 257 256 254 253 254 255 253 249 247 246 246 245 241 239 239 240
254 260 263 266 266 271 279 282 281 280 280 279 277 277 276 274 273 273 273 272 269 267 265 263 261 259 257 255 253 252 251 252 254 252 249 246 244 245 245 242 239 239
257 265 269 272 276 280 284 285 284 283 283 281 278 276 274 274 273 272 272 271 268 267 265 263 262 259 258 256 253 252 251 251 252 251 250 248 245 244 246 245 241 239
261 270 276 281 285 287 286 286 286 285 284 283 281 278 276 275 274 273 271 268 267 267 264 263 262 260 258 257 253 252 251 250 249 249 248 247 247 244 243 243 243 240
266 275 281 286 288 288 288 288 287 287 287 285 284 281 279 277 275 273 270 269 268 267 265 263 262 260 258 256 253 250 249 248 247 247 246 245 245 243 241 241 242 242
273 280 286 289 289 289 290 291 290 289 288 287 285 283 281 279 277 274 271 270 269 266 265 263 261 260 257 255 252 249 247 246 245 245 245 244 243 241 238 238 240 241
279 286 289 290 291 292 293 293 292 291 289 288 286 284 283 281 278 276 273 271 270 267 266 263 261 259 255 252 250 247 246 245 244 243 244 244 243 241 238 237 238 239
282 288 290 292 293 294 295 296 294 293 292 291 289 286 284 282 280 278 275 272 270 269 266 263 260 257 254 251 248 246 245 245 244 243 242 242 243 241 238 235 235 237
286 291 292 294 295 295 297 299 298 297 296 294 292 290 287 285 283 280 277 273 271 269 265 262 259 257 255 253 250 247 245 244 244 244 242 241 241 240 238 235 233 235
290 295 295 295 296 298 302 303 302 302 301 297 295 293 291 289 286 282 279 276 273 269 266 263 261 259 257 255 252 250 246 243 243 244 244 242 241 240 238 235 233 232
295 297 297 298 300 303 307 308 308 307 305 302 298 296 293 290 286 282 280 278 274 271 267 264 262 261 259 257 254 252 248 243 241 241 242 243 242 243 241 236 232 232
298 299 301 301 302 305 309 312 313 312 308 304 300 297 293 289 286 282 279 276 273 271 269 266 264 261 260 258 255 252 249 244 240 239 241 241 241 243 245 240 233 231
300 300 303 302 303 306 310 314 316 316 313 308 302 297 292 288 285 280 277 274 272 271 269 268 265 262 259 258 256 253 250 245 240 238 239 240 239 240 243 244 240 233
299 301 303 303 305 308 310 315 318 319 317 311 303 296 291 288 285 280 277 275 273 272 271 270 267 264 260 257 255 252 249 243 238 236 237 238 237 237 239 242 242 237
299 302 303 303 307 310 313 317 319 318 316 311 305 300 296 293 290 286 282 279 276 274 273 272 270 266 261 257 253 249 245 240 235 234 235 236 235 235 236 237 238 237
300 302 304 305 308 314 317 318 318 318 317 314 308 304 301 298 295 291 286 281 278 276 274 272 270 267 262 257 251 246 241 236 233 233 234 234 234 234 234 234 235 236
303 303 305 307 310 316 319 318 318 319 319 316 312 308 305 301 298 295 290 285 281 278 276 273 271 269 265 258 250 244 239 234 232 233 232 232 232 231 230 231 232 234
309 308 309 311 313 317 319 318 318 319 319 318 316 312 307 303 301 298 294 290 285 283 280 276 274 273 269 260 250 244 239 233 231 231 229 229 230 228 227 228 227 229